Wauseon Fulton County Airport, OH

5:18 AM EDT on July 27, 2017 (GMT -0400)
Fulton County

Weather History for KUSE - February, 2014

Change the Weather History Date:

Tuesday, February 18, 2014

  Actual Average (KTOL) Record (KTOL)
Temperature  
Mean Temperature 32 °F -  
Max Temperature 41 °F 37 °F 67 °F (2017)
Min Temperature 24 °F 21 °F -9 °F (1936)
Degree Days  
Heating Degree Days 32    
Moisture  
Dew Point 24 °F    
Average Humidity 76    
Maximum Humidity 93    
Minimum Humidity 61    
Precipitation  
Precipitation 0.00 in - - ()
Sea Level Pressure  
Sea Level Pressure 29.86 in    
Wind  
Wind Speed 17 mph (SW)    
Max Wind Speed 24 mph    
Max Gust Speed 31 mph    
Visibility 7 miles    
Events Rain , Snow    
Averages and records for this station are not official NWS values.
T = Trace of Precipitation, MM = Missing Value Source: NWS Daily Summary

Daily Weather History Graph

Daily Weather History Graph

Search for Another Location

Airport or City:

Trip Planner

Search our weather history database for the weather conditions in past years. The results will help you decide how hot, cold, wet, or windy it might be!

Date:

Astronomy

Feb. 18, 2014 Rise Set
Actual Time 7:27 AM EST 6:13 PM EST
Civil Twilight 6:59 AM EST 6:42 PM EST
Nautical Twilight 6:27 AM EST 7:14 PM EST
Astronomical Twilight 5:54 AM EST 7:46 PM EST
Moon 10:09 PM EST (2/18) 8:56 AM EST (2/18)
Length of Visible Light 11h 42m
Length of Day
10h 46m
Waning Gibbous, 87% of the Moon is Illuminated
Feb 18
Waning Gibbous
Feb 22
Last Quarter
Mar 1
New
Mar 8
First Quarter
Mar 16
Full

Hourly Weather History & Observations

Time (EST) Temp. Windchill Dew Point Humidity Pressure Visibility Wind Dir Wind Speed Gust Speed Precip Events Conditions
12:15 AM 26.6 °F 13.4 °F 24.8 °F 93% 29.66 in 2.0 mi West 18.4 mph 26.5 mph N/A Snow Light Snow
12:35 AM 26.6 °F 13.4 °F 24.8 °F 93% 29.67 in 0.8 mi West 18.4 mph 25.3 mph N/A Snow Light Snow
12:55 AM 26.6 °F 13.1 °F 24.8 °F 93% 29.67 in 0.8 mi West 19.6 mph - N/A Snow Light Snow
1:15 AM 26.6 °F 13.1 °F 23.0 °F 86% 29.68 in 3.0 mi West 19.6 mph 26.5 mph N/A Snow Light Snow
1:35 AM 26.6 °F 12.4 °F 23.0 °F 86% 29.69 in 5.0 mi West 21.9 mph 28.8 mph N/A Snow Light Snow
1:55 AM 26.6 °F 13.1 °F 21.2 °F 80% 29.71 in 6.0 mi West 19.6 mph 26.5 mph N/A   Haze
2:15 AM 26.6 °F 12.0 °F 21.2 °F 80% 29.72 in 5.0 mi West 23.0 mph 28.8 mph N/A   Haze
2:35 AM 26.6 °F 11.7 °F 21.2 °F 80% 29.73 in 2.5 mi West 24.2 mph 31.1 mph N/A Rain Light Freezing Rain
2:55 AM 24.8 °F 9.3 °F 21.2 °F 86% 29.75 in 2.5 mi West 24.2 mph 31.1 mph N/A Snow Light Snow
3:15 AM 26.6 °F 12.4 °F 21.2 °F 80% 29.77 in 4.0 mi West 21.9 mph 31.1 mph N/A Rain Light Freezing Rain
3:35 AM 26.6 °F 11.7 °F 21.2 °F 80% 29.78 in 3.0 mi West 24.2 mph - N/A Snow Light Snow
3:55 AM 24.8 °F 9.6 °F 21.2 °F 86% 29.79 in 5.0 mi West 23.0 mph 29.9 mph N/A Rain Light Freezing Rain
4:15 AM 26.6 °F 12.4 °F 21.2 °F 80% 29.81 in 6.0 mi West 21.9 mph - N/A   Haze
4:35 AM 26.6 °F 13.1 °F 21.2 °F 80% 29.82 in 7.0 mi West 19.6 mph - N/A   Overcast
4:55 AM 26.6 °F 13.4 °F 21.2 °F 80% 29.84 in 7.0 mi West 18.4 mph 27.6 mph N/A   Overcast
5:15 AM 26.6 °F 13.4 °F 21.2 °F 80% 29.86 in 7.0 mi West 18.4 mph 25.3 mph N/A   Overcast
5:35 AM 26.6 °F 12.4 °F 21.2 °F 80% 29.88 in 7.0 mi West 21.9 mph 28.8 mph N/A   Overcast
5:55 AM 26.6 °F 13.1 °F 21.2 °F 80% 29.89 in 8.0 mi West 19.6 mph - N/A   Overcast
6:15 AM 26.6 °F 13.8 °F 19.4 °F 74% 29.90 in 8.0 mi West 17.3 mph 26.5 mph N/A   Overcast
6:35 AM 26.6 °F 13.4 °F 19.4 °F 74% 29.92 in 10.0 mi WNW 18.4 mph - N/A   Overcast
6:55 AM 26.6 °F 11.7 °F 19.4 °F 74% 29.93 in 9.0 mi West 24.2 mph 29.9 mph N/A   Overcast
7:15 AM 26.6 °F 16.8 °F 19.4 °F 74% 29.94 in 9.0 mi West 10.4 mph 21.9 mph N/A   Overcast
7:35 AM 26.6 °F 15.7 °F 19.4 °F 74% 29.95 in 8.0 mi West 12.7 mph - N/A   Overcast
7:55 AM 26.6 °F 16.2 °F 19.4 °F 74% 29.96 in 7.0 mi West 11.5 mph - N/A   Overcast
8:15 AM 26.6 °F 16.8 °F 19.4 °F 74% 29.96 in 7.0 mi West 10.4 mph - N/A   Overcast
8:35 AM 26.6 °F 15.7 °F 19.4 °F 74% 29.97 in 8.0 mi West 12.7 mph - N/A   Overcast
8:55 AM 26.6 °F 15.7 °F 19.4 °F 74% 29.98 in 7.0 mi West 12.7 mph - N/A   Overcast
9:15 AM 26.6 °F 15.7 °F 19.4 °F 74% 29.99 in 7.0 mi West 12.7 mph - N/A   Overcast
9:35 AM 26.6 °F 16.2 °F 19.4 °F 74% 30.00 in 8.0 mi West 11.5 mph 18.4 mph N/A   Overcast
9:55 AM 26.6 °F 14.7 °F 19.4 °F 74% 30.01 in 7.0 mi West 15.0 mph 20.7 mph N/A   Overcast
10:15 AM 26.6 °F 16.8 °F 21.2 °F 80% 30.01 in 7.0 mi WSW 10.4 mph - N/A   Overcast
10:35 AM 26.6 °F 15.7 °F 21.2 °F 80% 30.02 in 7.0 mi WSW 12.7 mph 19.6 mph N/A   Overcast
10:55 AM 26.6 °F 14.3 °F 19.4 °F 74% 30.02 in 7.0 mi WSW 16.1 mph - N/A   Overcast
11:15 AM 26.6 °F 15.7 °F 19.4 °F 74% 30.02 in 7.0 mi SW 12.7 mph - N/A   Mostly Cloudy
11:35 AM 26.6 °F 15.7 °F 19.4 °F 74% 30.02 in 7.0 mi WSW 12.7 mph 19.6 mph N/A   Partly Cloudy
11:55 AM 28.4 °F 18.5 °F 21.2 °F 74% 30.01 in 7.0 mi WSW 11.5 mph - N/A   Clear
12:15 PM 28.4 °F 17.5 °F 21.2 °F 74% 30.01 in 7.0 mi SW 13.8 mph - N/A   Clear
12:35 PM 30.2 °F 21.9 °F 23.0 °F 75% 30.00 in 5.0 mi WSW 9.2 mph - N/A   Haze
12:55 PM 30.2 °F 21.3 °F 24.8 °F 80% 30.00 in 5.0 mi SW 10.4 mph 20.7 mph N/A   Haze
1:15 PM 32.0 °F 22.5 °F 24.8 °F 75% 29.99 in 5.0 mi SW 12.7 mph - N/A   Haze
1:35 PM 32.0 °F 22.5 °F 26.6 °F 80% 29.98 in 6.0 mi SSW 12.7 mph - N/A   Haze
1:55 PM 32.0 °F 23.0 °F 26.6 °F 80% 29.96 in 5.0 mi SSW 11.5 mph - N/A   Haze
2:15 PM 33.8 °F 24.8 °F 26.6 °F 75% 29.94 in 5.0 mi South 12.7 mph - N/A   Haze
2:35 PM 33.8 °F 25.3 °F 26.6 °F 75% 29.93 in 6.0 mi SSE 11.5 mph - N/A   Haze
2:55 PM 33.8 °F 24.8 °F 28.4 °F 81% 29.92 in 6.0 mi South 12.7 mph - N/A   Haze
3:15 PM 33.8 °F 24.8 °F 28.4 °F 81% 29.92 in 7.0 mi South 12.7 mph - N/A   Clear
3:35 PM 35.6 °F 27.1 °F 28.4 °F 75% 29.91 in 10.0 mi South 12.7 mph - N/A   Clear
3:55 PM 35.6 °F 26.6 °F 28.4 °F 75% 29.90 in 10.0 mi South 13.8 mph - N/A   Clear
4:15 PM 35.6 °F 26.6 °F 28.4 °F 75% 29.89 in 10.0 mi South 13.8 mph - N/A   Clear
4:35 PM 35.6 °F 27.5 °F 28.4 °F 75% 29.87 in 10.0 mi SSE 11.5 mph - N/A   Clear
4:55 PM 35.6 °F 26.6 °F 28.4 °F 75% 29.86 in 10.0 mi SSE 13.8 mph - N/A   Clear
5:15 PM 33.8 °F 23.5 °F 28.4 °F 81% 29.85 in 10.0 mi SSE 16.1 mph - N/A   Clear
5:35 PM 33.8 °F 23.5 °F 28.4 °F 81% 29.84 in 10.0 mi South 16.1 mph - N/A   Clear
5:55 PM 35.6 °F 26.2 °F 30.2 °F 81% 29.83 in 10.0 mi South 15.0 mph - N/A   Clear
6:15 PM 35.6 °F 26.2 °F 28.4 °F 75% 29.82 in 10.0 mi South 15.0 mph - N/A   Clear
6:35 PM 35.6 °F 26.6 °F 28.4 °F 75% 29.82 in 10.0 mi South 13.8 mph - N/A   Clear
6:55 PM 35.6 °F 28.0 °F 28.4 °F 75% 29.82 in 10.0 mi South 10.4 mph - N/A   Clear
7:15 PM 35.6 °F 26.6 °F 28.4 °F 75% 29.81 in 10.0 mi South 13.8 mph - N/A   Clear
7:35 PM 35.6 °F 29.2 °F 28.4 °F 75% 29.82 in 10.0 mi SSW 8.1 mph 13.8 mph N/A   Clear
7:55 PM 33.8 °F 27.0 °F 28.4 °F 81% 29.82 in 10.0 mi South 8.1 mph - N/A   Clear
8:15 PM 37.4 °F 28.2 °F 28.4 °F 70% 29.79 in 10.0 mi South 16.1 mph - N/A   Clear
8:35 PM 39.2 °F 30.8 °F 28.4 °F 65% 29.78 in 10.0 mi South 15.0 mph - N/A   Clear
8:55 PM 39.2 °F 31.6 °F 28.4 °F 65% 29.78 in 10.0 mi South 12.7 mph - N/A   Clear
9:15 PM 37.4 °F 29.8 °F 28.4 °F 70% 29.77 in 10.0 mi South 11.5 mph - N/A   Clear
9:35 PM 39.2 °F 32.5 °F 28.4 °F 65% 29.77 in 10.0 mi South 10.4 mph - N/A   Clear
9:55 PM 39.2 °F 31.2 °F 30.2 °F 70% 29.75 in 10.0 mi South 13.8 mph - N/A   Clear
10:15 PM 39.2 °F 32.0 °F 30.2 °F 70% 29.74 in 10.0 mi SSW 11.5 mph - N/A   Scattered Clouds
10:35 PM 39.2 °F 30.5 °F 30.2 °F 70% 29.73 in 10.0 mi South 16.1 mph - N/A   Scattered Clouds
10:55 PM 41.0 °F 33.5 °F 30.2 °F 65% 29.72 in 10.0 mi SSW 13.8 mph - N/A   Mostly Cloudy
11:15 PM 41.0 °F 33.5 °F 30.2 °F 65% 29.71 in 10.0 mi SSW 13.8 mph 19.6 mph N/A   Mostly Cloudy
11:35 PM 39.2 °F 30.5 °F 30.2 °F 70% 29.70 in 10.0 mi SSW 16.1 mph - N/A   Partly Cloudy
11:55 PM 41.0 °F 32.8 °F 28.4 °F 61% 29.69 in 10.0 mi SSW 16.1 mph - N/A   Clear